View from above orbital plane
|
View from above satellite
|
Ground track
|
The orbit data is extracted from the following two-line orbital elements,
1 43880U 18111E 21024.72030808 -.00000159 00000-0 -88203-5 0 9995
2 43880 97.6958 294.8473 0011104 221.5314 138.5065 14.96704676113587
Epoch (UTC): | 24 January 2021 17:17:14 |
Eccentricity: | 0.0011104 |
inclination: | 97.6958° |
perigee height: | 569 km |
apogee height: | 585 km |
right ascension of ascending node: | 294.8473° |
argument of perigee: | 221.5314° |
revolutions per day: | 14.96704676 |
mean anomaly at epoch: | 138.5065° |
orbit number at epoch: | 11358 |
The dashed part of the orbit path shows where the satellite is in the earth's shadow,
|
|